RYR39FQ LDZD-EPKK

Flight info

Callsign RYR39FQ
Flight time 1h 15m
Altitude 39000
Route PALEZ DCT KOPRY DCT XOMBA DCT MOCON/N0353F230 M985 MEBAN
Aircraft B738/M-SDE3FGILRWY/SB1

Departure

Time 2026-04-22 21:45
Airport Zadar Airport (LDZD)

Arrival

Time 2026-04-22 23:00
Airport Kraków John Paul II International Airport (EPKK)
Time Latitude Longitude Altitude Speed Heading
2026-04-22 21:18 44.09670 15.35437 284 ft 0 kts 326°
2026-04-22 21:38 44.09668 15.35439 275 ft 2 kts 327°
2026-04-22 21:38 44.09659 15.35448 277 ft 3 kts 323°
2026-04-22 21:39 44.09644 15.35466 279 ft 3 kts 311°
2026-04-22 21:39 44.09632 15.35488 280 ft 3 kts 299°
2026-04-22 21:39 44.09623 15.35513 275 ft 3 kts 296°
2026-04-22 21:39 44.09613 15.35537 277 ft 3 kts 319°
2026-04-22 21:40 44.09605 15.35544 283 ft 1 kts 358°
2026-04-22 21:40 44.09604 15.35544 283 ft 1 kts 358°
2026-04-22 21:42 44.09613 15.35544 278 ft 3 kts 358°
2026-04-22 21:42 44.09645 15.35543 275 ft 6 kts 358°
2026-04-22 21:42 44.09702 15.35540 275 ft 10 kts 358°
2026-04-22 21:43 44.09783 15.35537 277 ft 13 kts 358°
2026-04-22 21:43 44.09876 15.35532 278 ft 13 kts 11°
2026-04-22 21:43 44.09951 15.35607 280 ft 14 kts 43°
2026-04-22 21:43 44.10016 15.35701 281 ft 13 kts 46°
2026-04-22 21:44 44.10080 15.35682 281 ft 14 kts 315°
2026-04-22 21:44 44.10289 15.35400 279 ft 81 kts 316°
2026-04-22 21:44 44.10865 15.34627 289 ft 148 kts 318°
2026-04-22 21:44 44.11692 15.33550 743 ft 174 kts 317°
2026-04-22 21:45 44.12609 15.32284 1377 ft 196 kts 316°
2026-04-22 21:45 44.13580 15.30889 2156 ft 205 kts 316°
2026-04-22 21:45 44.14595 15.29425 2799 ft 215 kts 319°
2026-04-22 21:45 44.15730 15.27908 3206 ft 234 kts 321°
2026-04-22 21:46 44.16934 15.26323 3940 ft 241 kts 324°
2026-04-22 21:46 44.18283 15.24851 4589 ft 254 kts 328°
2026-04-22 21:46 44.19698 15.23309 5382 ft 262 kts 328°
2026-04-22 21:46 44.21127 15.21720 6335 ft 263 kts 328°
2026-04-22 21:47 44.22557 15.20122 7245 ft 265 kts 328°
2026-04-22 21:47 44.24011 15.18497 7754 ft 269 kts 327°
2026-04-22 21:47 44.25483 15.16849 8431 ft 274 kts 326°
2026-04-22 21:47 44.26976 15.15202 9355 ft 273 kts 329°
2026-04-22 21:48 44.28737 15.14351 10177 ft 270 kts 359°
2026-04-22 21:48 44.30648 15.14696 10506 ft 290 kts 20°
2026-04-22 21:48 44.32500 15.16065 10792 ft 311 kts 31°
2026-04-22 21:48 44.34358 15.17718 11388 ft 321 kts 32°
2026-04-22 21:49 44.36233 15.19440 12187 ft 324 kts 32°
2026-04-22 21:49 44.38120 15.21184 13024 ft 327 kts 32°
2026-04-22 21:49 44.40035 15.22949 13848 ft 332 kts 32°
2026-04-22 21:49 44.41977 15.24732 14590 ft 336 kts 32°
2026-04-22 21:50 44.43941 15.26528 15420 ft 338 kts 32°
2026-04-22 21:50 44.45890 15.28306 16246 ft 340 kts 31°
2026-04-22 21:50 44.47908 15.30146 17074 ft 343 kts 31°
2026-04-22 21:50 44.49897 15.31958 17876 ft 347 kts 31°
2026-04-22 21:51 44.51933 15.33812 18623 ft 351 kts 31°
2026-04-22 21:51 44.54021 15.35715 19293 ft 355 kts 31°
2026-04-22 21:51 44.56100 15.37610 19987 ft 358 kts 31°
2026-04-22 21:52 44.60310 15.41451 21341 ft 364 kts 31°
2026-04-22 21:52 44.62441 15.43399 21990 ft 368 kts 31°
2026-04-22 21:52 44.64597 15.45369 22614 ft 372 kts 31°
2026-04-22 21:52 44.66742 15.47332 23234 ft 375 kts 31°
2026-04-22 21:53 44.68941 15.49347 23836 ft 379 kts 30°
2026-04-22 21:53 44.71158 15.51380 24323 ft 382 kts 30°
2026-04-22 21:53 44.73397 15.53434 24791 ft 386 kts 30°
2026-04-22 21:53 44.75659 15.55512 25279 ft 390 kts 30°
2026-04-22 21:54 44.77940 15.57610 25737 ft 393 kts 30°
2026-04-22 21:54 44.80234 15.59723 26222 ft 396 kts 30°
2026-04-22 21:54 44.82551 15.61858 26694 ft 399 kts 31°
2026-04-22 21:54 44.84887 15.64013 27141 ft 402 kts 31°
2026-04-22 21:55 44.87232 15.66178 27640 ft 404 kts 31°
2026-04-22 21:55 44.89575 15.68344 28294 ft 402 kts 31°
2026-04-22 21:55 44.91902 15.70499 28967 ft 399 kts 31°
2026-04-22 21:55 44.94224 15.72650 29571 ft 398 kts 31°
2026-04-22 21:56 44.96538 15.74795 30111 ft 399 kts 31°
2026-04-22 21:56 44.98859 15.76948 30599 ft 399 kts 31°
2026-04-22 21:56 45.01177 15.79100 31031 ft 399 kts 31°
2026-04-22 21:56 45.03494 15.81254 31465 ft 399 kts 31°
2026-04-22 21:57 45.05817 15.83415 31903 ft 399 kts 31°
2026-04-22 21:57 45.08134 15.85573 32345 ft 399 kts 31°
2026-04-22 21:57 45.10449 15.87732 32779 ft 399 kts 31°
2026-04-22 21:57 45.12761 15.89889 33184 ft 399 kts 31°
2026-04-22 21:58 45.15092 15.92065 33212 ft 403 kts 31°
2026-04-22 21:58 45.19759 15.96432 33223 ft 398 kts 31°
2026-04-22 21:59 45.24359 16.00745 33239 ft 396 kts 31°
2026-04-22 21:59 45.28969 16.05074 33237 ft 398 kts 31°
2026-04-22 22:00 45.33594 16.09426 33226 ft 399 kts 31°
2026-04-22 22:00 45.38196 16.13768 33214 ft 398 kts 31°
2026-04-22 22:01 45.42788 16.18107 33220 ft 396 kts 32°
2026-04-22 22:01 45.47375 16.22448 33227 ft 396 kts 32°
2026-04-22 22:02 45.51968 16.26804 33228 ft 397 kts 32°
2026-04-22 22:02 45.56567 16.31174 33227 ft 397 kts 32°
2026-04-22 22:03 45.61168 16.35557 33226 ft 398 kts 32°
2026-04-22 22:03 45.65770 16.39948 33223 ft 398 kts 32°
2026-04-22 22:04 45.70374 16.44351 33218 ft 398 kts 33°
2026-04-22 22:04 45.74972 16.48757 33218 ft 397 kts 33°
2026-04-22 22:05 45.79558 16.53160 33207 ft 397 kts 33°
2026-04-22 22:05 45.84136 16.57564 33206 ft 396 kts 33°
2026-04-22 22:06 45.88702 16.61966 33204 ft 395 kts 33°
2026-04-22 22:06 45.93258 16.66367 33200 ft 394 kts 33°
2026-04-22 22:07 45.97807 16.70770 33208 ft 394 kts 33°
2026-04-22 22:07 46.02348 16.75174 33197 ft 394 kts 33°
2026-04-22 22:08 46.06887 16.79585 33204 ft 394 kts 33°
2026-04-22 22:08 46.10659 16.83257 33209 ft 394 kts 33°
2026-04-22 22:09 46.15198 16.87685 33192 ft 394 kts 34°
2026-04-22 22:09 46.19735 16.92120 33193 ft 394 kts 34°
2026-04-22 22:10 46.24291 16.96512 33190 ft 394 kts 30°
2026-04-22 22:10 46.29186 17.00060 33202 ft 394 kts 26°
2026-04-22 22:11 46.34099 17.03455 33203 ft 394 kts 26°
2026-04-22 22:11 46.39032 17.06893 33199 ft 393 kts 26°
2026-04-22 22:12 46.43954 17.10357 33194 ft 393 kts 27°
2026-04-22 22:12 46.48865 17.13833 33205 ft 393 kts 27°
2026-04-22 22:13 46.53772 17.17316 33206 ft 392 kts 27°
2026-04-22 22:13 46.58667 17.20798 33215 ft 391 kts 27°
2026-04-22 22:14 46.63554 17.24280 33215 ft 391 kts 27°
2026-04-22 22:14 46.68437 17.27767 33219 ft 390 kts 27°
2026-04-22 22:15 46.73314 17.31256 33216 ft 390 kts 27°
2026-04-22 22:15 46.78184 17.34747 33210 ft 390 kts 27°
2026-04-22 22:16 46.83057 17.38249 33206 ft 390 kts 27°
2026-04-22 22:16 46.87925 17.41753 33199 ft 390 kts 27°
2026-04-22 22:17 46.92795 17.45266 33193 ft 390 kts 28°
2026-04-22 22:17 46.97630 17.48761 33192 ft 390 kts 28°
2026-04-22 22:18 47.02498 17.52287 33180 ft 390 kts 28°
2026-04-22 22:18 47.07393 17.55840 33199 ft 390 kts 28°
2026-04-22 22:19 47.12225 17.59354 33199 ft 390 kts 28°
2026-04-22 22:19 47.17117 17.62919 33207 ft 390 kts 28°
2026-04-22 22:20 47.21980 17.66471 33205 ft 390 kts 28°
2026-04-22 22:20 47.26801 17.69998 33211 ft 390 kts 28°
2026-04-22 22:21 47.31660 17.73561 33204 ft 390 kts 28°
2026-04-22 22:21 47.36510 17.77125 33202 ft 390 kts 28°
2026-04-22 22:22 47.41360 17.80697 33202 ft 389 kts 28°
2026-04-22 22:22 47.46205 17.84271 33209 ft 389 kts 28°
2026-04-22 22:23 47.51042 17.87848 33211 ft 389 kts 28°
2026-04-22 22:23 47.55876 17.91430 33215 ft 388 kts 28°
2026-04-22 22:24 47.60708 17.95018 33212 ft 388 kts 28°
2026-04-22 22:24 47.65531 17.98607 33208 ft 388 kts 28°
2026-04-22 22:25 47.70347 18.02197 33200 ft 387 kts 28°
2026-04-22 22:25 47.75160 18.05793 33202 ft 387 kts 28°
2026-04-22 22:26 47.79927 18.09509 33194 ft 387 kts 30°
2026-04-22 22:26 47.84651 18.13327 33187 ft 387 kts 30°
2026-04-22 22:27 47.89381 18.17155 33180 ft 387 kts 30°
2026-04-22 22:27 47.94090 18.20958 33174 ft 387 kts 30°
2026-04-22 22:28 47.98833 18.24789 33175 ft 387 kts 30°
2026-04-22 22:28 48.03569 18.28620 33175 ft 387 kts 30°
2026-04-22 22:29 48.08313 18.32465 33170 ft 388 kts 30°
2026-04-22 22:29 48.13050 18.36313 33175 ft 388 kts 30°
2026-04-22 22:30 48.17787 18.40168 33177 ft 387 kts 30°
2026-04-22 22:30 48.22518 18.44027 33174 ft 387 kts 30°
2026-04-22 22:31 48.27244 18.47891 33173 ft 387 kts 30°
2026-04-22 22:31 48.31899 18.51701 33171 ft 376 kts 30°
2026-04-22 22:32 48.36468 18.55452 33171 ft 374 kts 30°
2026-04-22 22:32 48.38748 18.57327 32981 ft 375 kts 30°
2026-04-22 22:32 48.41020 18.59197 32747 ft 368 kts 30°
2026-04-22 22:32 48.43256 18.61039 32369 ft 364 kts 30°
2026-04-22 22:33 48.45472 18.62865 32009 ft 361 kts 30°
2026-04-22 22:33 48.47669 18.64679 31641 ft 358 kts 30°
2026-04-22 22:33 48.49850 18.66481 31294 ft 355 kts 30°
2026-04-22 22:33 48.52011 18.68269 30932 ft 353 kts 30°
2026-04-22 22:34 48.54155 18.70043 30585 ft 351 kts 30°
2026-04-22 22:34 48.56259 18.71788 30230 ft 349 kts 30°
2026-04-22 22:34 48.58378 18.73545 29817 ft 346 kts 30°
2026-04-22 22:34 48.60473 18.75285 29455 ft 342 kts 30°
2026-04-22 22:35 48.62548 18.77010 29075 ft 338 kts 30°
2026-04-22 22:35 48.64598 18.78715 28711 ft 335 kts 30°
2026-04-22 22:35 48.66628 18.80405 28368 ft 331 kts 30°
2026-04-22 22:35 48.68639 18.82080 28007 ft 328 kts 30°
2026-04-22 22:36 48.70627 18.83739 27650 ft 325 kts 30°
2026-04-22 22:36 48.72605 18.85391 27301 ft 322 kts 30°
2026-04-22 22:36 48.74559 18.87024 26968 ft 319 kts 30°
2026-04-22 22:36 48.76498 18.88646 26624 ft 317 kts 30°
2026-04-22 22:37 48.78424 18.90259 26273 ft 315 kts 30°
2026-04-22 22:37 48.80338 18.91862 25939 ft 313 kts 30°
2026-04-22 22:37 48.82237 18.93455 25606 ft 310 kts 30°
2026-04-22 22:37 48.84118 18.95035 25281 ft 308 kts 30°
2026-04-22 22:38 48.85992 18.96608 24949 ft 307 kts 30°
2026-04-22 22:38 48.87851 18.98172 24619 ft 305 kts 30°
2026-04-22 22:38 48.89678 18.99710 24301 ft 303 kts 30°
2026-04-22 22:38 48.91541 19.01279 23978 ft 302 kts 30°
2026-04-22 22:39 48.93374 19.02824 23631 ft 300 kts 30°
2026-04-22 22:39 48.95195 19.04360 23262 ft 298 kts 30°
2026-04-22 22:39 48.97000 19.05885 22948 ft 295 kts 30°
2026-04-22 22:39 48.98788 19.07396 22600 ft 293 kts 30°
2026-04-22 22:40 49.00562 19.08897 22302 ft 291 kts 30°
2026-04-22 22:40 49.02311 19.10378 21992 ft 291 kts 30°
2026-04-22 22:40 49.04083 19.11879 21674 ft 293 kts 30°
2026-04-22 22:40 49.05887 19.13409 21360 ft 301 kts 30°
2026-04-22 22:41 49.07741 19.14984 21016 ft 306 kts 30°
2026-04-22 22:41 49.09599 19.16562 20666 ft 304 kts 30°
2026-04-22 22:41 49.11438 19.18124 20349 ft 302 kts 30°
2026-04-22 22:41 49.13266 19.19679 20011 ft 300 kts 30°
2026-04-22 22:42 49.15081 19.21225 19698 ft 297 kts 30°
2026-04-22 22:42 49.16881 19.22783 19301 ft 298 kts 31°
2026-04-22 22:42 49.18670 19.24362 18974 ft 296 kts 31°
2026-04-22 22:42 49.20449 19.25941 18644 ft 295 kts 31°
2026-04-22 22:43 49.22218 19.27513 18300 ft 293 kts 31°
2026-04-22 22:43 49.23975 19.29076 17946 ft 291 kts 31°
2026-04-22 22:43 49.25719 19.30627 17629 ft 288 kts 31°
2026-04-22 22:43 49.27448 19.32164 17317 ft 286 kts 31°
2026-04-22 22:44 49.29158 19.33686 17011 ft 283 kts 31°
2026-04-22 22:44 49.30859 19.35200 16708 ft 281 kts 31°
2026-04-22 22:44 49.32520 19.36680 16394 ft 279 kts 31°
2026-04-22 22:44 49.34196 19.38174 16086 ft 278 kts 31°
2026-04-22 22:45 49.35862 19.39659 15781 ft 276 kts 31°
2026-04-22 22:45 49.37515 19.41135 15482 ft 274 kts 31°
2026-04-22 22:45 49.39160 19.42605 15187 ft 273 kts 31°
2026-04-22 22:45 49.40796 19.44067 14882 ft 271 kts 31°
2026-04-22 22:46 49.42424 19.45524 14591 ft 270 kts 31°
2026-04-22 22:46 49.44042 19.46973 14296 ft 269 kts 31°
2026-04-22 22:46 49.45656 19.48418 13996 ft 268 kts 31°
2026-04-22 22:46 49.47269 19.49865 13666 ft 267 kts 31°
2026-04-22 22:47 49.48868 19.51300 13353 ft 266 kts 31°
2026-04-22 22:47 49.50460 19.52730 13061 ft 264 kts 31°
2026-04-22 22:47 49.52040 19.54149 12757 ft 262 kts 30°
2026-04-22 22:47 49.53610 19.55562 12465 ft 260 kts 31°
2026-04-22 22:48 49.55168 19.56965 12176 ft 259 kts 30°
2026-04-22 22:48 49.56718 19.58360 11883 ft 257 kts 30°
2026-04-22 22:48 49.58256 19.59747 11598 ft 256 kts 30°
2026-04-22 22:48 49.59789 19.61130 11313 ft 254 kts 30°
2026-04-22 22:49 49.61311 19.62504 11022 ft 253 kts 30°
2026-04-22 22:49 49.62825 19.63872 10751 ft 252 kts 30°
2026-04-22 22:49 49.64334 19.65236 10472 ft 252 kts 30°
2026-04-22 22:49 49.65841 19.66599 10262 ft 248 kts 30°
2026-04-22 22:50 49.67287 19.67909 10109 ft 243 kts 30°
2026-04-22 22:50 49.68765 19.69248 9809 ft 249 kts 30°
2026-04-22 22:50 49.70282 19.70623 9524 ft 256 kts 30°
2026-04-22 22:50 49.71816 19.72015 9221 ft 255 kts 30°
2026-04-22 22:51 49.73341 19.73399 8932 ft 254 kts 30°
2026-04-22 22:51 49.74857 19.74777 8645 ft 251 kts 30°
2026-04-22 22:51 49.76358 19.76142 8376 ft 250 kts 30°
2026-04-22 22:51 49.77852 19.77502 8086 ft 249 kts 30°
2026-04-22 22:52 49.79337 19.78854 7821 ft 246 kts 30°
2026-04-22 22:52 49.80812 19.80198 7533 ft 246 kts 30°
2026-04-22 22:52 49.82279 19.81536 7262 ft 245 kts 30°
2026-04-22 22:52 49.83745 19.82874 6939 ft 245 kts 30°
2026-04-22 22:53 49.85224 19.84224 6616 ft 247 kts 29°
2026-04-22 22:53 49.86702 19.85576 6309 ft 246 kts 30°
2026-04-22 22:53 49.88177 19.86924 6027 ft 245 kts 30°
2026-04-22 22:53 49.89644 19.88267 5734 ft 244 kts 30°
2026-04-22 22:54 49.91103 19.89604 5458 ft 243 kts 30°
2026-04-22 22:54 49.92067 19.90488 5290 ft 242 kts 29°
2026-04-22 22:54 49.93509 19.91811 5100 ft 237 kts 29°
2026-04-22 22:54 49.94906 19.93092 4989 ft 230 kts 29°
2026-04-22 22:55 49.96264 19.94339 4887 ft 223 kts 30°
2026-04-22 22:55 49.97576 19.95545 4777 ft 216 kts 29°
2026-04-22 22:55 50.00074 19.97842 4596 ft 206 kts 29°
2026-04-22 22:56 50.01329 19.98917 4382 ft 206 kts 18°
2026-04-22 22:56 50.02747 19.99072 4160 ft 206 kts 354°
2026-04-22 22:56 50.04165 19.98761 3918 ft 206 kts 352°
2026-04-22 22:56 50.05581 19.98407 3683 ft 205 kts 352°
2026-04-22 22:57 50.06976 19.98061 3480 ft 200 kts 352°
2026-04-22 22:57 50.08320 19.97654 3237 ft 194 kts 340°
2026-04-22 22:57 50.09278 19.96259 2908 ft 196 kts 295°
2026-04-22 22:57 50.09522 19.94237 2668 ft 184 kts 283°
2026-04-22 22:58 50.09609 19.92318 2409 ft 174 kts 267°
2026-04-22 22:58 50.09440 19.90561 2187 ft 157 kts 264°
2026-04-22 22:58 50.09234 19.88965 1986 ft 150 kts 262°
2026-04-22 22:58 50.09016 19.87399 1773 ft 146 kts 260°
2026-04-22 22:59 50.08800 19.85856 1584 ft 145 kts 258°
2026-04-22 22:59 50.08589 19.84341 1382 ft 142 kts 258°
2026-04-22 22:59 50.08373 19.82859 1182 ft 140 kts 256°
2026-04-22 22:59 50.08176 19.81399 988 ft 136 kts 259°
2026-04-22 23:00 50.07977 19.79971 819 ft 133 kts 258°
2026-04-22 23:00 50.07804 19.78706 800 ft 100 kts 258°
2026-04-22 23:00 50.07689 19.77879 796 ft 56 kts 258°
2026-04-22 23:00 50.07625 19.77413 798 ft 41 kts 258°
2026-04-22 23:01 50.07571 19.77031 801 ft 25 kts 258°
2026-04-22 23:01 50.07519 19.76844 801 ft 14 kts 197°
2026-04-22 23:01 50.07420 19.76865 799 ft 15 kts 167°
2026-04-22 23:01 50.07325 19.76904 799 ft 14 kts 145°
2026-04-22 23:02 50.07319 19.77044 799 ft 13 kts 77°
2026-04-22 23:02 50.07338 19.77184 799 ft 13 kts 77°
2026-04-22 23:02 50.07357 19.77319 799 ft 13 kts 78°
2026-04-22 23:02 50.07375 19.77451 799 ft 12 kts 77°
2026-04-22 23:03 50.07394 19.77582 799 ft 13 kts 77°
2026-04-22 23:03 50.07413 19.77721 799 ft 13 kts 78°
2026-04-22 23:03 50.07432 19.77857 799 ft 13 kts 77°
2026-04-22 23:03 50.07452 19.77998 799 ft 13 kts 78°
2026-04-22 23:04 50.07471 19.78134 799 ft 13 kts 77°
2026-04-22 23:04 50.07490 19.78267 799 ft 12 kts 77°
2026-04-22 23:04 50.07507 19.78398 799 ft 12 kts 78°
2026-04-22 23:04 50.07525 19.78531 799 ft 13 kts 77°
2026-04-22 23:05 50.07545 19.78663 799 ft 12 kts 77°
2026-04-22 23:05 50.07563 19.78793 799 ft 12 kts 78°
2026-04-22 23:05 50.07581 19.78925 799 ft 13 kts 78°
2026-04-22 23:05 50.07600 19.79066 799 ft 14 kts 78°
2026-04-22 23:06 50.07620 19.79206 799 ft 13 kts 77°
2026-04-22 23:06 50.07639 19.79345 799 ft 13 kts 78°
2026-04-22 23:06 50.07659 19.79488 799 ft 13 kts 78°
2026-04-22 23:06 50.07678 19.79624 799 ft 13 kts 78°
2026-04-22 23:07 50.07697 19.79758 799 ft 12 kts 78°
2026-04-22 23:07 50.07678 19.79873 799 ft 12 kts 155°
2026-04-22 23:07 50.07597 19.79904 799 ft 12 kts 167°
2026-04-22 23:07 50.07517 19.79931 799 ft 11 kts 168°
2026-04-22 23:08 50.07464 19.79912 799 ft 8 kts 243°
2026-04-22 23:08 50.07454 19.79852 799 ft 2 kts 257°
2026-04-22 23:08 50.07453 19.79846 799 ft 0 kts 257°